DELTA 1 DEB, 27575

Orbit data source: Space-Track

DELTA 1 DEB, 27575 is space debris in LEO originally from a launch on Thu, 14 Jul 1977 UTC launched from the Air Force Eastern Test Range (AFETR). Debris objects in space refer to the collection of defunct objects orbiting the Earth. Examples of debris include non-operational satellites, rocket bodies, and fragments generated from explosions, collisions, or faulty payload assembly.

Loading next visibility...
Identifier
27575, 1977-065GG
Orbit
LEO
Country
Flag of USUS
Related business
Manufacturer
Unknown
Mission
Spacecraft
Bus & Motor
Unknown
Mass
Unknown
Launch date (UTC)
1977-07-14 (49 years ago)
Launch vehicle
Unknown
Launch site
Air Force Eastern Test Range (AFETR)
Object type
Payload
Rocket body
Debris
Shape & HBR
Unknown shape, 0.1 m
Radar Cross Section
Medium (>0.1 m² and <1 m²)

Expand to show TLE details & history
Last TLE update: 4 days ago

TLE from 4 days ago
0 DELTA 1 DEB
1 27575U 77065GG  26169.85943777  .00004624  00000-0  16389-2 0  9990
2 27575  29.1198  26.2590 0411909 182.2103 286.4776 13.94539543391945
Epoch: 2026-06-18T20:37Z
TLE epoch observation values (Epoch: 2026-06-18T20:37:35.423Z)
Latitude
28.28808°
Longitude
-84.18253°
Altitude
838.157 km
Speed
7.476 km/s
True Right ascension
08h 49m 14s
True Declination
28° 08' 47"
Sunlit
Object was in daylight at epoch
Visualization orbit readout
Latitude
Unknown
Longitude
Unknown
Altitude
Unknown
Speed
Unknown
Apparent Right ascension
Unknown
Apparent Declination
Unknown
Sunlit
N/A
Visualization observer readout
Local Sidereal Time
01:06:53
Azimuth
Unknown
Elevation
Unknown
Doppler factor
Unknown
Orbital elements
Apogee altitude
1,217.156 km
Perigee altitude
616.196 km
Semi-major axis
7,294.813 km
Eccentricity
0.04119
Inclination
29.1198°
RAAN
26.259°
Arg. of periapsis
182.2103°
True anomaly
281.8892°
Mean anomaly
286.4776°
Eccentric anomaly
284.18954°
Mean motion
3.48355 °/min
Orbital period
103.34 mins
BSTAR
0.0016389
Loading maneuver chart data...
Computing Atmospheric mass density...

Documentation

Showing up to 5 results
|